Regional Weather Roundup
Issued by NWS Bismarck, ND

Home | Current Version | Previous Version | Text Only | Print | Product List | Glossary On
Versions: 1 2 3 4 5 6 7 8 9 10 11 12 13 14 15 16 17 18 19 20 21 22 23 24 25 26 27 28 29 30 31 32 33 34 35 36 37 38 39 40 41 42 43 44 45 46 47 48 49 50
000
ASUS43 KBIS 192159
RWRBIS

NWR BROADCAST TEXT
NATIONAL WEATHER SERVICE BISMARCK ND
400 PM CST FRI DEC 19 2014

NOTE: "FAIR" INDICATES FEW OR NO CLOUDS BELOW 12,000 FEET WITH NO
SIGNIFICANT WEATHER AND/OR OBSTRUCTIONS TO VISIBILITY.


CITY           SKY/WX    TMP DP  RH WIND       PRES   REMARKS
WILLISTON      CLOUDY    27  25  92 S3        29.91R
MINOT          CLOUDY    27  25  92 W3        29.93R FOG
MINOT AFB      NOT AVBL
BISMARCK       CLEAR     37  27  67 E3        29.93R
DICKINSON      NOT AVBL
GARRISON         N/A     28  26  92 CALM      29.92R
HETTINGER ARPT CLEAR     43  27  53 W8        29.91R
JAMESTOWN      NOT AVBL
CARRINGTON     FAIR      30  30 100 MISG      29.95R
CROSBY         CLOUDY    25  25 100 NW3       29.92S FOG
HAZEN          FAIR      32  27  80 NE7       29.93R
OAKES            N/A     30  30 100 S13       29.99R FOG
WATFORD CITY   FAIR      37  30  75 W5        29.88S
$$

CITY           SKY/WX    TMP DP  RH WIND       PRES   REMARKS
GRAND FORKS    CLOUDY    28  27  96 S8        30.01R FOG     WCI  20
GRAND FORKS AF CLOUDY    28  28 100 S9        30.00S FOG     WCI  20
DEVILS LAKE    CLOUDY    27  19  74 SW5       29.94R
FARGO          CLOUDY    31  28  89 S14       30.02S FOG
GWINNER        CLOUDY    32  32 100 MISG      30.01S
ROLLA          CLOUDY    27  27 100 CALM      29.94R
$$

CITY           SKY/WX    TMP DP  RH WIND       PRES   REMARKS
ABERDEEN       CLOUDY    31  27  85 S13       30.00R FOG
MOBRIDGE       CLEAR     36  28  73 SE8       29.92R
BUFFALO          N/A     45  23  42 N3        29.84R
RAPID CITY     CLOUDY    44  26  49 SE6       29.95R
GLASGOW        CLEAR     38  28  67 E6        29.86R
SIDNEY         CLEAR     41  28  60 CALM      29.91S
WOLF POINT     CLEAR     41  28  60 CALM      29.88S
GLENDIVE       CLEAR     39  27  60 S9        29.90R
MILES CITY     CLEAR     42  26  53 SW5       29.88S
BAKER          CLEAR     43  24  47 W7        29.90R
$$

CITY           SKY/WX    TMP DP  RH WIND       PRES   REMARKS
BILLINGS       PTSUNNY   40  22  48 SW9       29.87S
GREAT FALLS    PTSUNNY   44  28  53 SW21      29.77S
$$




USA.gov is the U.S. government's official web portal to all federal, state and local government web resources and services.